Location: Enborne
(51.3833°N, 1.3667°W)
Time: 09:51:37
(UTC+00:00)

NOSS 2-2 (C) - Visible Passes

Search period start: 17 January 2021 00:00
Search period end: 27 January 2021 00:00
Orbit: 465 x 1743 km, 63.3° (Epoch: 12 January)

Date Brightness Start Highest point End Pass type
(mag) Time Alt. Az. Time Alt. Az. Time Alt. Az.
17 Jan 5.4 18:19:08 10° NW 18:22:07 19° N 18:23:43 16° NNE visible
17 Jan 6.2 20:10:03 10° NW 20:11:07 16° NNW 20:11:07 16° NNW visible
18 Jan 5.3 17:33:20 10° NW 17:36:17 19° N 17:39:43 10° NE visible
18 Jan 5.5 19:24:45 10° NW 19:27:12 22° N 19:27:12 22° N visible
19 Jan 5.4 18:39:20 10° NW 18:42:40 21° NNE 18:43:19 20° NNE visible
19 Jan 6.3 20:29:42 10° NW 20:30:43 17° NNW 20:30:43 17° NNW visible
20 Jan 5.4 17:53:47 10° NW 17:56:51 19° N 17:59:28 13° NE visible
20 Jan 5.5 19:44:28 10° NW 19:46:51 26° N 19:46:51 26° N visible
21 Jan 5.3 17:08:04 10° NW 17:11:00 19° N 17:14:26 10° NE visible
21 Jan 5.2 18:59:11 10° NW 19:03:01 27° NNE 19:03:01 27° NNE visible
21 Jan 6.4 20:49:21 10° NW 20:50:24 17° NW 20:50:24 17° NW visible
22 Jan 5.3 18:13:51 10° NW 18:17:23 22° NNE 18:19:12 19° NE visible
22 Jan 5.4 20:04:06 10° NW 20:06:37 31° NNW 20:06:37 31° NNW visible
23 Jan 5.4 17:28:22 10° NW 17:31:34 20° N 17:35:24 10° NE visible
23 Jan 4.8 19:18:52 10° NW 19:22:51 38° NNE 19:22:51 38° NNE visible
23 Jan 6.5 21:09:06 10° NW 21:10:15 18° NW 21:10:15 18° NW visible
24 Jan 5.0 18:33:37 10° NW 18:37:47 30° NNE 18:39:09 27° NE visible
24 Jan 5.4 20:23:46 10° NW 20:26:34 36° NW 20:26:34 36° NW visible
25 Jan 5.2 17:48:18 10° NW 17:52:04 24° NNE 17:55:31 14° ENE visible
25 Jan 4.4 19:38:29 10° NW 19:42:56 61° N 19:42:56 61° N visible
25 Jan 6.7 21:29:06 10° WNW 21:30:21 17° WNW 21:30:21 17° WNW visible
26 Jan 4.5 18:53:15 10° NW 18:57:58 47° NE 18:59:24 39° ENE visible
26 Jan 5.6 20:43:34 10° NW 20:46:49 37° WNW 20:46:49 37° WNW visible
